Regional Weather Roundup
Issued by NWS Upton, NY

Current Version | Previous Version | Text Only | Print | Product List | Glossary On
Versions: 1 2 3 4 5 6 7 8 9 10 11 12 13 14 15 16 17 18 19 20 21 22 23 24 25 26 27 28 29 30 31 32 33 34 35 36 37 38 39 40 41 42 43 44 45 46 47 48 49
000
ASUS41 KOKX 271505
RWROKX

REGIONAL WEATHER ROUNDUP
NATIONAL WEATHER SERVICE NEW YORK NY
1000 AM EST SAT DEC 27 2014

NOTE: "FAIR" INDICATES FEW OR NO CLOUDS BELOW 12,000 FEET WITH NO
SIGNIFICANT WEATHER AND/OR OBSTRUCTIONS TO VISIBILITY.

NYZ071-072-176-178-NJZ106-104-271600-
NEW YORK CITY METRO AREA


CITY           SKY/WX    TMP DP  RH WIND       PRES   REMARKS
CENTRAL PARK   SUNNY     48  30  49 W5        30.29R
LAGUARDIA APRT PTSUNNY   48  32  53 NW3       30.26S
KENNEDY INTL   PTSUNNY   48  34  58 SW5       30.28S
NEWARK/LIBERTY MOSUNNY   47  34  60 SW3       30.27S
BRNX BOT. GARD   N/A     46  32  57 W13       30.28R
TETERBORO      LGT RAIN  39  34  82 CALM      30.26S
$$

NYZ177-179-078>081-271600-
LONG ISLAND NEW YORK

CITY           SKY/WX    TMP DP  RH WIND       PRES   REMARKS
FARMINGDALE    SUNNY     48  34  58 SW3       30.27S
ISLIP          PTSUNNY   47  34  60 W3        30.26S
SHIRLEY        SUNNY     47  34  60 W3        30.27S
WESTHAMPTON    SUNNY     46  36  68 CALM      30.28S
MONTAUK POINT    N/A     46  37  71 W5        30.27R
$$

NYZ052-065-067-271600-
HUDSON VALLEY

CITY           SKY/WX    TMP DP  RH WIND       PRES   REMARKS
WHITE PLAINS   SUNNY     46  31  55 NW6       30.25R
NEWBURGH       SUNNY     43  34  70 W5        30.25S
MONTGOMERY     SUNNY     43  33  68 SW7       30.23S
POUGHKEEPSIE   SUNNY     45  31  58 W3        30.25R
ALBANY         CLOUDY    36  30  79 CALM      30.24R
$$

NJZ001-105-106-008-010-013-015-019>022-104-271600-
NEW JERSEY

CITY           SKY/WX    TMP DP  RH WIND       PRES   REMARKS
NEWARK/LIBERTY MOSUNNY   47  34  60 SW3       30.27S
TETERBORO      LGT RAIN  39  34  82 CALM      30.26S
CALDWELL       SUNNY     44  31  60 CALM      30.27S
MORRISTOWN     SUNNY     45  36  70 CALM      30.27S
SOMERVILLE     SUNNY     42  32  67 CALM      30.26S
SUSSEX         SUNNY     38  31  76 S5        30.25R WCI  34
ANDOVER        NOT AVBL
TRENTON        SUNNY     43  33  68 SW3       30.28R
MILLVILLE      PTSUNNY   45  38  76 CALM      30.30S
ATLANTIC CITY  PTSUNNY   44  37  76 SW3       30.31R
WRIGHTSTOWN    MOSUNNY   42  35  75 SW7       30.28R
TOMS RIVER     MOSUNNY   39  34  81 CALM      30.29R
BELMAR         MOSUNNY   46  30  53 CALM      30.27S
$$

PAZ047>061-062-071-271600-
EASTERN PENNSYLVANIA

CITY           SKY/WX    TMP DP  RH WIND       PRES   REMARKS
PHILADELPHIA   MOSUNNY   40  35  83 W6        30.31R
ALLENTOWN      SUNNY     40  32  73 CALM      30.28R
SCRANTON       SUNNY     40  31  70 MISG      30.25R
$$

CTZ002-004>006-009-010-012-RIZ004-006-007-MAZ004-011-015-271600-
SOUTHERN NEW ENGLAND
 IN CT

CITY           SKY/WX    TMP DP  RH WIND       PRES   REMARKS
BRADLEY INTL   PTSUNNY   41  31  67 S5        30.24R
HARTFORD       SUNNY     40  31  70 S5        30.26R
DANBURY        SUNNY     41  32  70 CALM      30.26R
WTRBRY/OXFORD  MOSUNNY   43  28  56 CALM      30.24F
BRIDGEPORT     SUNNY     47  36  65 CALM      30.26S
MERIDEN        SUNNY     40  31  70 S3        30.26S
NEW HAVEN      MOSUNNY   46  32  58 W3        30.26S
CHESTER        FAIR      45  32  61 W3        30.25S
GROTON         SUNNY     42  36  79 CALM      30.25S
WILLIMANTIC    SUNNY     35  29  78 CALM      30.25S

 IN RI

CITY           SKY/WX    TMP DP  RH WIND       PRES   REMARKS
PROVIDENCE     MOSUNNY   46  30  53 W7        30.24R
BLOCK ISLAND   SUNNY     46  34  61 W8        30.25S
WESTERLY       SUNNY     43  31  62 W5        30.26R

 IN MA

CITY           SKY/WX    TMP DP  RH WIND       PRES   REMARKS
BOSTON         MOSUNNY   45  30  55 W10       30.22R
WORCESTER      SUNNY     42  30  62 W13       30.19R
WESTFIELD      SUNNY     42  32  67 SW6       30.23R
PROVINCETOWN   SUNNY     45  34  65 W9        30.22S
NANTUCKET      SUNNY     49  35  58 W10       30.24R
$$

ANZ330-335-338-340-345-350-353-355-271600-
COASTAL MARINE OBSERVATIONS


STATION/POSITION TIME  SKY/WX   TEMP    WIND        PRES    VSBY  WAVE
                                AIR SEA DIR/SP/G                  HT/PER
                 (UTC)          (F)     (DEG/KT/KT) (MB)    (MI)  (FT/S)
NY HARB ENTRANCE 1500            44 44  280/  6/  8 1025.8          2/15
4S FIRE IS       1500               47                N/A           3/15
20S FIRE ISLAND  1400            49 48              1025.4          3/16
23SW MTP         1500                                 N/A           4/15
HUDSON CANYON    1500            49 55  260/ 12/ 14 1025.6          4/15
EXECUTION ROCKS  1500            52 42  210/  4/  6   N/A
WESTERN LI SOUND 1500            44      CALM  /  2   N/A           0
CENTRAL LI SOUND 1500            44 44  280/  6/  8   N/A           1
EASTERN LI SOUND NOT AVBL
ROBBINS REEF     1500            44                 1023.7
$$


>>>>>>>>>>>>>>>>>>>>>>>>>>>> KEY <<<<<<<<<<<<<<<<<<<<<<<<<<<
>                                                          <
>     SKY/WX - SKY CONDITION/PRESENT WEATHER               <
>     TMP    - TEMPERATURE IN FAHRENHEIT                   <
>     DP     - DEWPOINT IN FAHRENHEIT                      <
>     RH     - RELATIVE HUMIDITY IN PERCENT                <
>     WIND   - DIRECTION AND SPEED IN MPH                  <
>     PRES   - MEAN SEA LEVEL PRESSURE IN INCHES OF HG     <
>     WCI    - WIND CHILL INDEX                            <
>     VSB    - VISIBILITY IN MILES                         <
>     HX     - HEAT INDEX                                  <
>     TC     - TEMPERATURE IN CELSIUS                      <
>     VRB    - VARIABLE WIND DIRECTION                     <
>                                                          <
>>>>>>>>>>>>>>>>>>>>>>>>>>>> KEY <<<<<<<<<<<<<<<<<<<<<<<<<<<




USA.gov is the U.S. government's official web portal to all federal, state and local government web resources and services.